Casa Grande, AZ

8:30 AM MST on November 12, 2019 (GMT -0700)
Casa Grande Municipal

Weather History for KCGZ - September, 2019

Change the Weather History Date:

Tuesday, September 10, 2019

  Actual Average Record
Temperature  
Mean Temperature 88 °F -  
Max Temperature 97 °F 97 °F 104 °F (2001)
Min Temperature 80 °F 71 °F 62 °F (2010)
Cooling Degree Days 24    
Growing Degree Days 38 (Base 50)    
Moisture  
Dew Point 64 °F    
Average Humidity 48    
Maximum Humidity 71    
Minimum Humidity 25    
Precipitation  
Precipitation 0.00 in - - ()
Sea Level Pressure  
Sea Level Pressure 29.79 in    
Wind  
Wind Speed 9 mph ()    
Max Wind Speed 20 mph    
Max Gust Speed 25 mph    
Visibility 10.0 miles    
Events      
Averages and records for this station are not official NWS values.
T = Trace of Precipitation, MM = Missing Value Source: Averaged Metar Reports

Daily Weather History Graph

Daily Weather History Graph

Search for Another Location

Airport or City:

Astronomy

Sep. 10, 2019 Rise Set
Actual Time 6:07 AM MST 6:40 PM MST
Civil Twilight 5:42 AM MST 7:05 PM MST
Nautical Twilight 5:13 AM MST 7:34 PM MST
Astronomical Twilight 4:43 AM MST 8:04 PM MST
Moon 5:06 PM MST (9/10) 2:50 AM MST (9/10)
Length of Visible Light 13h 22m
Length of Day
12h 32m
Waxing Gibbous, 90% of the Moon is Illuminated
Sep 10
Waxing Gibbous
Sep 13
Full
Sep 21
Last Quarter
Sep 28
New
Oct 5
First Quarter

Hourly Weather History & Observations

Time (MST) Temp. Heat Index Dew Point Humidity Pressure Visibility Wind Dir Wind Speed Gust Speed Precip Events Conditions
12:56 AM 82.9 °F 85.8 °F 68.0 °F 60% 29.78 in 10.0 mi SSW 5.8 mph - N/A   Partly Cloudy
1:56 AM 82.0 °F 85.9 °F 70.0 °F 67% 29.79 in 10.0 mi SSW 11.5 mph - N/A   Clear
2:56 AM 82.0 °F 85.9 °F 70.0 °F 67% 29.79 in 10.0 mi South 6.9 mph - N/A   Clear
3:56 AM 81.0 °F 84.4 °F 70.0 °F 69% 29.80 in 10.0 mi SSW 8.1 mph - N/A   Clear
5:56 AM 80.1 °F 83.2 °F 70.0 °F 71% 29.82 in 10.0 mi South 6.9 mph - N/A   Scattered Clouds
6:56 AM 81.0 °F 84.1 °F 69.1 °F 67% 29.83 in 10.0 mi SE 6.9 mph - N/A   Partly Cloudy
7:56 AM 84.0 °F 86.5 °F 66.9 °F 56% 29.84 in 10.0 mi South 11.5 mph - N/A   Partly Cloudy
8:56 AM 86.0 °F 88.8 °F 66.9 °F 53% 29.86 in 10.0 mi SSW 9.2 mph - N/A   Clear
9:56 AM 89.1 °F 91.3 °F 66.0 °F 46% 29.85 in 10.0 mi SSE 13.8 mph 23.0 mph N/A   Mostly Cloudy
10:56 AM 91.0 °F 93.0 °F 64.9 °F 42% 29.83 in 10.0 mi SSW 17.3 mph 23.0 mph N/A   Mostly Cloudy
11:56 AM 93.0 °F 94.2 °F 63.0 °F 37% 29.82 in 10.0 mi SSW 11.5 mph 19.6 mph N/A   Partly Cloudy
12:56 PM 93.9 °F 95.2 °F 63.0 °F 36% 29.80 in 10.0 mi SSW 18.4 mph 23.0 mph N/A   Partly Cloudy
1:56 PM 95.0 °F 94.8 °F 60.1 °F 31% 29.77 in 10.0 mi South 15.0 mph - N/A   Partly Cloudy
2:56 PM 97.0 °F 96.9 °F 60.1 °F 29% 29.74 in 10.0 mi SSW 19.6 mph 24.2 mph N/A   Partly Cloudy
3:56 PM 97.0 °F 95.7 °F 57.0 °F 26% 29.73 in 10.0 mi South 19.6 mph 25.3 mph N/A   Clear
4:56 PM 97.0 °F 95.3 °F 55.9 °F 25% 29.73 in 10.0 mi SSW 12.7 mph - N/A   Clear
5:56 PM 96.1 °F 94.5 °F 55.9 °F 26% 29.72 in 10.0 mi SW 10.4 mph - N/A   Clear
6:56 PM 91.9 °F 90.3 °F 55.9 °F 30% 29.73 in 10.0 mi SSW 6.9 mph - N/A   Clear
7:56 PM 90.0 °F 91.3 °F 64.0 °F 42% 29.75 in 10.0 mi SW 9.2 mph - N/A   Clear
8:56 PM 88.0 °F 90.3 °F 66.0 °F 48% 29.78 in 10.0 mi SSW 10.4 mph - N/A   Clear
9:56 PM 86.0 °F 88.8 °F 66.9 °F 53% 29.80 in 10.0 mi SSW 15.0 mph - N/A   Clear
10:56 PM 84.0 °F 86.5 °F 66.9 °F 56% 29.82 in 10.0 mi SSW 12.7 mph - N/A   Clear
11:56 PM 82.9 °F 85.0 °F 66.0 °F 56% 29.83 in 10.0 mi South 10.4 mph - N/A   Clear